Hourly Data Report for October 19, 2017

All times are specified in Local Standard Time (LST). Add 1 hour to adjust for Daylight Saving Time where and when it is observed.

CHATHAM KENT
ONTARIO

42°18'21.000" N
82°04'57.000" W
196.60 m
6131414
YCK

Related Data

No related data is available for this station

Download Data

Hourly Data (October 2017)
Hourly Data Report for October 19, 2017
Temp Definition
°C
Dew Point Temp Definition
°C
Rel Hum Definition
%
Wind Dir Definition
10's deg

Wind Spd Definition
km/h
Visibility Definition
km
Stn Press Definition
kPa
Hmdx Definition


Wind Chill Definition


Weather Definition


TIME
00:00 Legend Double Dagger 14.6 8.2 65 23 18 16.1 99.61     LegendNANA
01:00 Legend Double Dagger 14.7 8.7 67 23 21 16.1 99.58     LegendNANA
02:00 Legend Double Dagger 13.7 8.0 68 24 21 16.1 99.55     LegendNANA
03:00 Legend Double Dagger 13.6 8.9 73 23 21 16.1 99.53     LegendNANA
04:00 Legend Double Dagger 13.7 8.6 71 23 21 16.1 99.48     LegendNANA
05:00 Legend Double Dagger 13.5 9.0 74 23 24 16.1 99.46     LegendNANA
06:00 Legend Double Dagger 13.6 9.1 74 23 22 16.1 99.45     LegendNANA
07:00 Legend Double Dagger 13.2 8.9 75 24 22 16.1 99.45     LegendNANA
08:00 Legend Double Dagger 14.8 9.4 70 25 22 16.1 99.52     LegendNANA
09:00 Legend Double Dagger 15.8 9.5 66 26 26 16.1 99.55     LegendNANA
10:00 Legend Double Dagger 17.2 10.0 62 26 21 16.1 99.56     LegendNANA
11:00 Legend Double Dagger 18.0 10.0 59 29 22 16.1 99.60     LegendNANA
12:00 Legend Double Dagger 19.1 10.0 55 28 21 16.1 99.57     LegendNANA
13:00 Legend Double Dagger 20.3 9.7 50 26 17 16.1 99.52     LegendNANA
14:00 Legend Double Dagger 19.7 11.8 60 23 26 16.1 99.49     LegendNANA
15:00 Legend Double Dagger 20.5 10.2 51 27 22 16.1 99.50     LegendNANA
16:00 Legend Double Dagger 20.1 9.8 51 26 21 16.1 99.51     LegendNANA
17:00 Legend Double Dagger 19.0 8.4 50 27 11 16.1 99.57     LegendNANA
18:00 Legend Double Dagger 16.0 6.5 53 28 5 16.1 99.62     LegendNANA
19:00 Legend Double Dagger 12.9 6.1 63 30 9 16.1 99.69     LegendNANA
20:00 Legend Double Dagger 11.7 6.5 70 29 9 16.1 99.72     LegendNANA
21:00 Legend Double Dagger 12.2 5.6 64 31 13 16.1 99.73     LegendNANA
22:00 Legend Double Dagger 11.9 4.7 61 32 8 16.1 99.77     LegendNANA
23:00 Legend Double Dagger 11.2 4.2 62 32 8 16.1 99.79     LegendNANA

Notes on Data Quality.

Legend

  • E = Estimated
  • M = Missing
  • NA = Not Available
  • ‡ = Partner data that is not subject to review by the National Climate Archives
Date modified: